Lehigh Valley International Airport
KABE : rendu visible

Aérodrome :











RETROUVEZ-NOUS SUR...

 
LOGIN :

S'inscrire | Disclaimer

   EN    FR    IT 

 









Légende :    VFR   VFR Marginal   IFR   IFR Intensif   IFR Très Intensif
Visi : 
Plafond : 
>= 8 km
>= 3000ft
5 à 8 km
1000 à 3000 ft
1500m à 5 km
500 à 1000 ft
800 à 1500m
200 à 500 ft
< 800m
< 200 ft
Symboles :   Orages  Brouillard  Fortes neiges  Fortes précipitations  Vent > 20 kt






- Altitude de l'aérodrome : 393 ft
- Code IATA : ABE


KABE - Lehigh Valley International

DERNIER METAR :
  • 201551Z 34012G20KT 10SM FEW033 BKN070 07/M02 A3000 RMK AO2 SLP162 T00721017

METARs EXPIRÉS :
  • 201451Z 33010KT 10SM SCT033 OVC065 07/M02 A3000 RMK AO2 SLP161 T00671017 51018
  • 201351Z 32008KT 10SM OVC065 06/M02 A2999 RMK AO2 SLP158 T00561017

TAF KABE
Valide du 20 à 14h jusqu'au 21 à 12h UTC


201349Z 2014/2112 32010KT P6SM SCT025 OVC050
FM201600 32010G18KT P6SM BKN050
FM210100 32009KT P6SM SCT050



MET'MAP, la Météo Aéronautique d'un coup d'oeil ! - Copyright ORBIFLY Décembre 2007 - Disclaimer

ORBIFLY MET'MAP TEAM :

Programmation & Développement : Alexandra Zaïnal
Conception & Développement : Baudouin d'Aumeries
Co-Programmation & Développement : Marc-Olivier Méhu
Soutien technique & logistique : Manuel Goepfert

Contact : metmap@orbifly.com




SOURCES & CREDITS :

   NOAA       Earth
Advisory